Aérodrome :
LOGIN :

S'inscrire | Disclaimer

   EN    FR    IT 

 










Légende :    VFR   VFR Marginal   IFR   IFR Intensif   IFR Très Intensif
Visi : 
Plafond : 
>= 8 km
>= 3000ft
5 à 8 km
1000 à 3000 ft
1500m à 5 km
500 à 1000 ft
800 à 1500m
200 à 500 ft
< 800m
< 200 ft
Symboles :   Orages  Brouillard  Fortes neiges  Fortes précipitations  Vent > 20 kt
SIGMETs :   Divers  Orages  Givrage  Turbulence  Onde Orograph.  Cendres Volcan.







- Altitude de l'aérodrome : 909 ft
- Code IATA : KSF


EDVK - Kassel Calden

DERNIER METAR :
  • 220850Z 01003KT 280V060 CAVOK M02/M05 Q1023

METARs EXPIRÉS :
  • 220820Z 02004KT 340V050 9999 FEW033 M03/M05 Q1023
  • 220750Z 01004KT CAVOK M04/M05 Q1023
  • 220720Z 03004KT CAVOK M04/M06 Q1023
  • 220650Z 04003KT CAVOK M03/M07 Q1023
  • 220620Z 06005KT CAVOK M04/M07 Q1023

TAF TAF EDVK
Valide du 22 à 09h jusqu'au 22 à 18h UTC


220800Z 2209/2218 06008KT CAVOK
Pas de NOTAMs connus pour ce terrain.



MET'MAP, la Météo Aéronautique d'un coup d'oeil ! - Copyright ORBIFLY Décembre 2007 - Disclaimer

ORBIFLY MET'MAP TEAM :

Programmation & Développement : Alexandra Zaïnal
Conception & Développement : Baudouin d'Aumeries
Co-Programmation & Développement : Marc-Olivier Méhu
Soutien technique & logistique : Manuel Goepfert

Contact : metmap@orbifly.com




SOURCES & CREDITS :

   NOAA